Location: Gradaro
(45.0833°N, 10.8833°E)
Time: 23:10:19
(UTC+00:00)

FENGYUN 1C DEB - Pass Details

Date: 22 June 2021
Orbit: 744 x 851 km, 99.4° (Epoch: 27 July)

Event Time Altitude Azimuth Distance (km) Brightness Sun altitude
Exits shadow 01:29:34 10° 259° (W) 2,448 ? -15.3°
Reaches altitude 10° 01:29:37 10° 260° (W) 2,444 ? -15.2°
Maximum altitude 01:30:48 11° 272° (W) 2,393 ? -15.1°
Drops below altitude 10° 01:31:58 10° 285° (WNW) 2,435 ? -15.0°
Sets 01:36:40 0° 323° (NW) 3,347 ? -14.6°
